Regional Weather Roundup
Issued by NWS

Home | Current Version | Previous Version | Graphics & Text | Print | Product List | Glossary On
Versions: 1 2 3 4 5 6 7 8 9 10 11 12 13 14 15 16 17 18 19 20 21 22 23 24 25 26 27 28 29 30 31 32 33 34 35 36 37 38 39 40 41 42 43 44 45 46 47 48 49 50
000
ASUS43 KLOT 200206
RWRIL

ILLINOIS REGIONAL WEATHER ROUNDUP
NATIONAL WEATHER SERVICE CHICAGO/ROMEOVILLE IL
900 PM CDT TUE AUG 19 2014

NOTE: "FAIR" INDICATES FEW OR NO CLOUDS BELOW 12,000 FEET WITH NO
SIGNIFICANT WEATHER AND/OR OBSTRUCTIONS TO VISIBILITY.

* THESE STATIONS ARE NOT UNDER NWS QUALITY CONTROL. THEY ALSO MAY NOT
  REPORT WEATHER SUCH AS PRECIPITATION OR FOG.

ILZ001-002-007-009-015-016-024-200300-
NORTHWEST ILLINOIS

CITY           SKY/WX    TMP DP  RH WIND       PRES   REMARKS
MOLINE         CLEAR     72  65  78 SW5       29.78R
STERLING*      CLEAR     72  63  73 NW6       29.78R
SAVANNA*       CLEAR     76  63  63 CALM      29.77R
$$

ILZ003-004-008-010-011-017-018-200300-
NORTH CENTRAL ILLINOIS

CITY           SKY/WX    TMP DP  RH WIND       PRES   REMARKS
ROCKFORD       PTCLDY    73  62  68 W3        29.77R
FREEPORT*      CLEAR     73  67  82 W5        29.80R
ROCHELLE*      CLEAR     70  64  80 W3        29.78R
DE KALB*       CLEAR     70  64  81 NW6       29.78R
PERU*          CLEAR     74  65  73 W7        29.78R
$$

ILZ005-006-012>014-019>023-200300-
NORTHEAST ILLINOIS

CITY           SKY/WX    TMP DP  RH WIND       PRES   REMARKS
CHICAGO-OHARE  MOCLDY    75  66  73 W8        29.74R
CHICAGO-MIDWAY PTCLDY    80  68  66 SW6       29.74R HX  83
AURORA         CLEAR     70  65  84 W3        29.76R
LANSING*       PTCLDY    73  68  84 SW5       29.75R
JOLIET*        PTCLDY    75  66  73 CALM      29.76R
WAUKEGAN       PTCLDY    70  65  84 CALM      29.74R
DUPAGE AIRPORT CLEAR     75  65  70 W6        29.75R
KANKAKEE*      CLOUDY    72  68  87 CALM      29.79R
WHEELING       MOCLDY    76  69  79 CALM      29.75R
MORRIS*        CLEAR     72  69  89 SW3       29.76R
ROMEOVILLE*    PTCLDY    73  66  80 W6        29.76R
NORTHERLY ISL    N/A     79  65  62 S3          N/A  HX  81
$$

LMZ740>746-200300-
SOUTHERN LAKE MICHIGAN

STATION/POSITION SKY/WX   TEMP    WIND        PRES    VSBY  WAVE
                          AIR SEA DIR/SP/G                  HT/PER
                          (F)     (DEG/KT/KT) (MB)    (MI)  (FT/S)
SOUTHERN BUOY              68 67   40/  4/  4 1006.8R         1/ 5
WAUKEGAN HARBOR            71      40/  3/  5   N/A
HARRISON CRIB              79     190/  8/  8   N/A
BURNHAM HARBOR             79     220/  3/  7   N/A
CALUMET HARBOR             78     200/  6/  8 1005.9R
BURNS HARBOR               77     210/ 10/ 15   N/A
MICHIGAN CITY              76     160/ 11/ 14   N/A
MICHIGAN CITY 6N           73 70  190/  6/  8   N/A           1/ 3
ST. JOSEPH                 72 70  240/ 10/ 17   N/A           1/ 4
$$

ILZ025>027-034>036-040-047-049-050-058-095>099-200300-
WEST-CENTRAL ILLINOIS

CITY           SKY/WX    TMP DP  RH WIND       PRES   REMARKS
QUINCY         CLEAR     77  72  84 CALM      29.81R
GALESBURG*     CLEAR     71  66  84 CALM      29.80R
MACOMB*        CLEAR     72  70  94 W5        29.82R
JACKSONVILLE*  CLEAR     75  73  93 CALM      29.82R
PITTSFIELD*    CLEAR     74  71  90 CALM      29.83R
$$

ILZ028>032-037-038-041>044-048-051>054-059>061-200300-
CENTRAL ILLINOIS

CITY           SKY/WX    TMP DP  RH WIND       PRES   REMARKS
PONTIAC        CLEAR     73  72  94 SW3       29.78R
DECATUR        CLEAR     77  69  76 W5        29.81R
PEORIA         CLEAR     76  69  79 W5        29.79R
LACON*         CLEAR     73  68  85 SW3       29.78R
LINCOLN*       CLEAR     76  69  76 CALM      29.77R
SPRINGFIELD    CLEAR     75  72  90 SW3       29.81R
TAYLORVILLE    CLEAR     72  70  94 SW5       29.81R
$$

ILZ033-039-045-046-055>057-062-063-200300-
EAST-CENTRAL ILLINOIS

CITY           SKY/WX    TMP DP  RH WIND       PRES   REMARKS
CHAMPAIGN      CLEAR     72  69  90 W3        29.81R
DANVILLE*      RAIN      73  68  86 W3        29.78R
RANTOUL*       CLEAR     74  67  78 W5        29.81R
MATTOON        CLEAR     76  70  82 W5        29.80R
PARIS*         MOCLDY    74  73  97 W3        29.82R THUNDER
$$

ILZ079-100>102-200300-
SOUTHWEST ILLINOIS

CITY           SKY/WX    TMP DP  RH WIND       PRES   REMARKS
ALTON          CLEAR     73  73 100 CALM      29.82R
BELLEVILLE     CLEAR     79  77  94 CALM      29.80R HX  83
CAHOKIA*       CLEAR     76  73  91 CALM      29.80R
SPARTA*        CLEAR     78  72  81 S8        29.82S HX  80
$$

ILZ064>066-069>071-074>076-080>082-084>086-088>090-092>094-200300-
SOUTH-CENTRAL ILLINOIS

CITY           SKY/WX    TMP DP  RH WIND       PRES   REMARKS
CARBONDALE     CLEAR     72  68  87 S6        29.82R
CAIRO*         CLEAR     75  70  84 CALM      29.84R
MARION         CLEAR     73  68  83 CALM      29.84R
MT. VERNON     CLEAR     73  68  83 SW5       29.83R
CENTRALIA*     CLEAR     74  72  92 S3        29.82R
SALEM*         CLEAR     78  76  92 S5        29.82R HX  80
$$

ILZ067-068-072-073-078-083-087-091-200300-
SOUTHEAST ILLINOIS

CITY           SKY/WX    TMP DP  RH WIND       PRES   REMARKS
LAWRENCEVILLE  PTCLDY    76  74  93 SW5       29.81R FOG
FLORA*         PTCLDY    74  72  94 S5        29.82R
FAIRFIELD*     PTCLDY    79  75  89 MISG      29.82R HX  82
HARRISBURG*    PTCLDY    72  69  89 CALM      29.84S
ROBINSON*      PTCLDY    75  73  94 S5        29.81R
CARMI*         MOCLDY    75  73  94 S5        29.83R
$$

ABBREVIATIONS USED IN REMARKS
   TC - TEMPERATURE IN CELSIUS
  WCI - WIND CHILL INDEX
   HX - HEAT INDEX
  VSB - VISIBILITY
$$



USA.gov is the U.S. government's official web portal to all federal, state and local government web resources and services.